This is the latest recevied weather packets stored in our database for station/object K7DC. If no packets are shown the sender has not sent any weather packets the latest 10 day(s).
| Time | Temp. | Humidity | Pressure | Rain* | Wind** | Luminosity | Snow |
|---|---|---|---|---|---|---|---|
| 1787886087 | 32.78° C | 36% | 1014.3 hPa | 0 mm | - | 0 W/m² | - |
| 1787885786 | 32.78° C | 36% | 1014.1 hPa | 0 mm | - | 0 W/m² | - |
| 1787885485 | 33.33° C | 34% | 1014.1 hPa | 0 mm | - | 0 W/m² | - |
| 1787885179 | 33.89° C | 33% | 1013.9 hPa | 0 mm | - | 0 W/m² | - |
| 1787884878 | 33.89° C | 33% | 1013.7 hPa | 0 mm | - | 0 W/m² | - |
| 1787884578 | 33.89° C | 32% | 1013.7 hPa | 0 mm | - | 0 W/m² | - |
| 1787884275 | 33.89° C | 32% | 1013.5 hPa | 0 mm | - | 0 W/m² | - |
| 1787883970 | 33.89° C | 31% | 1013.7 hPa | 0 mm | - | 0 W/m² | - |
| 1787883670 | 33.89° C | 32% | 1013.7 hPa | 0 mm | - | 0 W/m² | - |
| 1787883366 | 34.44° C | 31% | 1013.7 hPa | 0 mm | - | 0 W/m² | - |
| 1787883065 | 35.56° C | 29% | 1013.4 hPa | 0 mm | - | 0 W/m² | - |
| 1787882761 | 35.56° C | 26% | 1013.3 hPa | 0 mm | - | 0 W/m² | - |
| 1787882457 | 35.56° C | 27% | 1013.2 hPa | 0 mm | - | 0 W/m² | - |
| 1787882153 | 36.11° C | 27% | 1013.2 hPa | 0 mm | - | 1 W/m² | - |
| 1787881852 | 36.11° C | 27% | 1013.2 hPa | 0 mm | - | 1 W/m² | - |
| 1787881548 | 36.11° C | 27% | 1013 hPa | 0 mm | - | 1 W/m² | - |
| 1787881244 | 36.11° C | 26% | 1013.2 hPa | 0 mm | - | 2 W/m² | - |
| 1787880939 | 35.56° C | 28% | 1012.7 hPa | 0 mm | - | 3 W/m² | - |
| 1787880638 | 35.56° C | 28% | 1012.7 hPa | 0 mm | - | 5 W/m² | - |
| 1787880337 | 35.56° C | 28% | 1012.6 hPa | 0 mm | - | 7 W/m² | - |
| 1787880032 | 35.56° C | 28% | 1012.7 hPa | 0 mm | - | 10 W/m² | - |
| 1787879727 | 35.56° C | 29% | 1012.8 hPa | 0 mm | - | 12 W/m² | - |
| 1787879422 | 35.56° C | 29% | 1012.8 hPa | 0 mm | - | 15 W/m² | - |
| 1787879118 | 35.56° C | 29% | 1012.9 hPa | 0 mm | - | 18 W/m² | - |
| 1787878815 | 35.56° C | 30% | 1012.8 hPa | 0 mm | - | 23 W/m² | - |
* Rain latest hour (hover to see other rain measurements)
** Current wind speed in m/s (hover to see current wind gust speed)